Total_Precipitation_Accumulation
2.35 2.46 2.48 2.44 2.54 2.52 2.68 2.95 3.18 3.05 2.72 2.55 2.42 2.36 2.45 2.55 2.84 2.57 2.44 2.44 2.19 2.04 1.98 2.01 2.10 2.15 2.34 2.60 2.77 2.84 2.85 2.91 2.95 2.99 3.07 3.22 3.39 3.49
2.17 2.22 2.22 2.19 2.40 2.50 2.54 2.71 2.98 3.14 3.03 2.65 2.44 2.26 2.34 2.34 2.74 2.59 2.59 2.70 2.34 2.05 1.97 2.03 2.09 2.08 2.13 2.19 2.35 2.48 2.58 2.64 2.66 2.69 2.78 2.90 3.04 3.25
2.00 1.96 1.96 2.10 2.23 2.25 2.35 2.48 2.74 3.04 3.16 2.86 2.58 2.44 2.50 2.58 2.68 2.67 2.53 2.39 2.23 2.21 2.04 1.99 2.18 2.36 2.21 2.04 2.00 2.05 2.21 2.35 2.45 2.48 2.54 2.66 2.75 2.88
1.81 1.85 1.71 1.79 1.99 2.09 2.22 2.29 2.46 2.70 2.88 2.82 2.61 2.55 2.53 2.54 2.71 2.70 2.45 2.18 2.01 2.14 2.02 1.95 2.11 2.48 2.55 2.26 2.07 1.93 1.89 1.95 2.06 2.18 2.27 2.36 2.48 2.65
1.70 1.72 1.66 1.80 1.89 2.03 2.14 2.18 2.35 2.44 2.70 2.69 2.48 2.49 2.57 2.55 2.68 2.56 2.32 2.26 1.82 1.83 1.86 1.88 1.97 2.54 2.96 2.74 2.41 2.17 1.91 1.76 1.70 1.82 1.97 2.10 2.15 2.23
1.56 1.58 1.59 1.68 1.81 2.04 2.11 2.26 2.44 2.57 2.70 2.71 2.58 2.56 2.63 2.71 2.74 2.74 2.56 2.32 1.98 1.60 1.71 1.80 1.96 2.41 3.00 3.18 2.79 2.51 2.22 1.98 1.76 1.66 1.71 1.75 1.78 1.80
1.53 1.50 1.47 1.51 1.65 1.80 1.86 2.14 2.43 2.61 2.67 2.71 2.65 2.61 2.58 2.74 2.60 2.46 2.45 2.31 2.04 1.78 1.83 1.71 1.91 2.52 3.16 3.50 3.29 2.70 2.26 2.05 1.90 1.72 1.62 1.57 1.55 1.57
1.59 1.55 1.37 1.34 1.38 1.44 1.51 1.64 1.97 2.27 2.46 2.59 2.56 2.51 2.43 2.47 2.48 2.38 2.40 2.42 2.24 1.83 1.87 1.93 2.16 2.96 3.49 3.73 3.66 2.84 2.17 1.95 1.87 1.78 1.68 1.58 1.48 1.42
1.58 1.63 1.43 1.28 1.38 1.38 1.37 1.36 1.49 1.76 2.11 2.41 2.50 2.32 2.37 2.43 2.54 2.53 2.42 2.39 2.31 1.98 1.98 2.07 2.34 2.98 3.36 3.74 3.73 2.97 2.36 2.01 1.93 1.86 1.75 1.65 1.55 1.45
1.47 1.49 1.57 1.54 1.35 1.35 1.44 1.51 1.62 1.73 1.84 1.95 2.21 2.32 2.36 2.34 2.34 2.37 2.44 2.47 2.31 2.02 2.04 2.27 2.33 2.72 3.10 3.62 3.59 2.93 2.44 2.14 1.98 1.88 1.75 1.60 1.50 1.46
1.28 1.23 1.29 1.32 1.24 1.27 1.47 1.73 1.89 2.05 1.88 1.89 2.01 2.22 2.28 2.15 2.03 2.16 2.47 2.61 2.39 2.03 1.91 2.16 2.27 2.46 2.81 3.16 3.02 2.70 2.36 2.14 1.95 1.78 1.68 1.60 1.52 1.49
1.21 1.19 1.21 1.19 1.16 1.24 1.46 1.84 2.06 2.14 1.93 1.82 1.98 2.17 2.09 2.02 2.07 2.19 2.45 2.52 2.37 2.23 1.90 2.05 2.15 2.28 2.68 2.75 2.52 2.26 2.17 2.18 2.04 1.88 1.73 1.60 1.50 1.42
1.08 1.14 1.17 1.16 1.10 1.19 1.43 1.72 1.95 2.00 1.94 1.94 2.04 2.13 2.16 2.18 2.10 2.12 2.26 2.28 2.31 2.20 1.81 2.03 2.23 2.30 2.52 2.58 2.44 2.27 2.07 2.04 2.01 2.08 2.03 1.78 1.59 1.49
1.11 1.10 1.13 1.15 1.13 1.24 1.35 1.65 1.94 2.10 2.00 1.90 1.87 1.91 1.93 1.94 1.90 1.82 1.85 1.90 1.95 2.00 1.91 2.06 2.36 2.48 2.44 2.31 2.36 2.26 2.18 2.12 2.02 2.06 2.15 2.04 1.83 1.77
0.96 1.09 1.07 1.03 1.18 1.45 1.61 1.78 2.01 2.18 2.08 1.87 1.78 1.70 1.68 1.71 1.66 1.70 1.71 1.73 1.68 1.60 1.51 1.73 2.10 2.31 2.37 2.29 2.25 2.20 2.34 2.49 2.33 2.26 2.18 2.04 1.91 1.79
0.80 1.01 1.16 1.22 1.37 1.67 1.91 2.02 2.09 2.07 1.93 1.77 1.67 1.61 1.57 1.58 1.62 1.59 1.68 1.70 1.74 1.68 1.52 1.55 1.80 2.10 2.23 2.14 2.19 2.24 2.31 2.71 2.67 2.43 2.30 2.23 2.07 1.91
0.79 1.00 1.18 1.28 1.49 1.72 1.86 1.89 1.89 1.85 1.80 1.69 1.59 1.55 1.54 1.56 1.57 1.58 1.62 1.58 1.63 1.61 1.64 1.65 1.74 1.87 1.93 1.99 2.12 2.15 2.29 2.48 2.50 2.34 2.29 2.34 2.29 2.10
0.85 1.09 1.28 1.39 1.56 1.68 1.80 1.77 1.69 1.67 1.65 1.62 1.60 1.51 1.48 1.50 1.57 1.57 1.54 1.53 1.56 1.50 1.47 1.51 1.57 1.65 1.76 1.87 1.98 2.05 2.08 2.24 2.29 2.22 2.09 2.17 2.33 2.23
0.89 1.14 1.34 1.46 1.58 1.61 1.64 1.62 1.59 1.54 1.47 1.48 1.47 1.44 1.42 1.44 1.48 1.49 1.45 1.44 1.46 1.42 1.35 1.38 1.43 1.52 1.65 1.88 1.94 1.94 1.95 2.00 2.08 2.06 1.98 2.00 2.17 2.23
0.96 1.16 1.35 1.43 1.47 1.52 1.52 1.50 1.48 1.43 1.38 1.41 1.47 1.42 1.35 1.32 1.29 1.30 1.32 1.31 1.29 1.26 1.29 1.31 1.31 1.42 1.59 1.75 1.99 2.02 1.84 1.72 1.78 1.86 1.81 1.84 2.00 2.01
0.95 1.07 1.17 1.26 1.35 1.41 1.40 1.38 1.37 1.35 1.29 1.30 1.33 1.33 1.28 1.21 1.15 1.11 1.12 1.06 1.06 1.11 1.20 1.28 1.27 1.19 1.23 1.40 1.67 1.80 1.77 1.77 1.71 1.67 1.63 1.74 1.76 1.64
0.92 0.98 1.01 1.04 1.11 1.20 1.19 1.15 1.17 1.17 1.15 1.17 1.17 1.19 1.22 1.17 1.08 1.02 1.00 1.01 1.03 1.03 1.07 1.11 1.07 1.07 1.18 1.39 1.57 1.67 1.63 1.52 1.51 1.47 1.43 1.43 1.42 1.54
0.83 0.85 0.88 0.89 0.88 0.91 0.97 0.99 1.04 1.11 1.14 1.14 1.12 1.10 1.08 1.04 0.97 0.94 0.94 0.94 0.91 0.90 0.96 1.05 1.08 1.12 1.20 1.31 1.45 1.47 1.39 1.34 1.33 1.33 1.38 1.40 1.30 1.34